Regional Weather Roundup
Issued by NWS Huntsville, AL

Home | Current Version | Previous Version | Text Only | Print | Product List | Glossary On
Versions: 1 2 3 4 5 6 7 8 9 10 11 12 13 14 15 16 17 18 19 20 21 22 23 24 25 26 27
000
ASUS44 KHUN 231310
RWRHUN

WEATHER ROUNDUP FOR THE TENNESSEE VALLEY
NATIONAL WEATHER SERVICE HUNTSVILLE AL
800 AM CDT THU MAR 23 2017

ALZ001>004-231400-
NORTHWEST ALABAMA

CITY           SKY/WX    TMP DP  RH WIND       PRES   REMARKS
COURTLAND HCN    N/A     41 N/A N/A CALM        N/A
RUSSELLVILLE     N/A     43 N/A N/A MISG        N/A
SHOALS AIRPORT SUNNY     45  35  68 SE3       30.30S
SHOALS TVA RES   N/A     43 N/A N/A MISG        N/A
$$

ALZ005>007-016-231400-
NORTH CENTRAL ALABAMA

CITY           SKY/WX    TMP DP  RH WIND       PRES   REMARKS
CULLMAN AG STN   N/A     48 N/A N/A E3          N/A
DECATUR AP     SUNNY     46  37  71 CALM      30.31R
HUNTSVILLE AP  MOSUNNY   55  35  47 SE14      30.30R
MERIDIANVILLE  SUNNY     54  28  37 SE8G18    30.31R
REDSTONE ARSN  SUNNY     55  33  44 S8        30.29R
VINEMONT AP    FAIR      50  31  47 SE7       30.32R
$$

ALZ008>010-231400-
NORTHEAST ALABAMA

CITY           SKY/WX    TMP DP  RH WIND       PRES   REMARKS
ALBERTVILLE    SUNNY     52  37  58 E12       30.31R
FORT PAYNE     MOSUNNY   52  23  32 E10G21    30.33R
SCOTTSBORO AP  MOSUNNY   48  32  53 NE3       30.35R
SCOTTSBORO HCN   N/A     41 N/A N/A MISG        N/A
VALLEY HEAD      N/A     52 N/A N/A MISG        N/A
$$

TNZ076-096-097-231400-
SOUTHEASTERN MIDDLE TENNESSEE

CITY           SKY/WX    TMP DP  RH WIND       PRES   REMARKS
TULLAHOMA      SUNNY     50  21  32 SE8       30.31R
WINCHESTER     SUNNY     52  27  37 SE16      30.31R
$$

...SURROUNDING SITES...

CITY           SKY/WX    TMP DP  RH WIND       PRES   REMARKS
ATLANTA        PTSUNNY   51  35  54 E14       30.39R
ANNISTON       SUNNY     54  37  52 NE7       30.34R
BIRMINGHAM     SUNNY     55  35  47 E8        30.32R
CHATTANOOGA    MOSUNNY   46  30  53 CALM      30.39R
CORINTH        CLOUDY    46  32  57 CALM      30.29R
DALTON         PTSUNNY   43  37  81 CALM      30.40R
GADSDEN        MOSUNNY   51  38  60 E9        30.34R
GOLDEN TRNGL   NOT AVBL
HALEYVILLE     FAIR      50  29  44 SE7       30.31R
JACKSON TN     CLOUDY    46  27  47 NE3       30.30R
MEMPHIS        PTSUNNY   52  25  34 E8        30.28S
NASHVILLE      MOSUNNY   42  25  50 CALM      30.35R
OXFORD MS      FAIR      48  28  46 SE3       30.29R
ROME           PTSUNNY   52  29  41 E10       30.38R
SAVANNAH       MOSUNNY   43  32  65 CALM      30.28S
TUPELO         CLOUDY    51  30  44 N3        30.28R
TUSCALOOSA     SUNNY     51  36  56 N3        30.29R
$$

...GULF COAST WEATHER...

CITY           SKY/WX    TMP DP  RH WIND       PRES   REMARKS
GULFPORT       SUNNY     64  51  62 NE6       30.21R
PASCAGOULA     SUNNY     59  53  80 N3        30.21R
MOBILE         SUNNY     61  47  59 NE6       30.23R
GULF SHORES    SUNNY     60  52  76 CALM      30.21R
PENSACOLA      SUNNY     66  51  58 E14       30.21R
DESTIN         SUNNY     67  56  67 E9        30.22R
PANAMA CITY    SUNNY     64  55  73 E12       30.23R
APPALACHICOLA  CLOUDY    67  60  78 E9G20     30.23R
$$





USA.gov is the U.S. government's official web portal to all federal, state and local government web resources and services.